Location: Cheyres
(46.8153°N, 6.7877°E)
Time: 11:52:11
(UTC+00:00)

Gbstr 26 Del rocket - Pass Details

Date: 23 September 2021
Orbit: 492 x 1263 km, 51.8° (Epoch: 18 October)

Event Time Altitude Azimuth Distance (km) Brightness Sun altitude
Exits shadow 03:00:47 28° 292° (WNW) 2,120 5.4 -23.9°
Maximum altitude 03:05:20 73° 214° (SW) 1,199 4.2 -23.2°
Drops below altitude 10° 03:12:11 10° 131° (SE) 2,795 6.7 -22.2°
Sets 03:14:37 0° 129° (SE) 3,636 7.3 -21.8°
